Location: Casilda
(33.0440°S, 61.1680°W)
Time: 15:56:29
(UTC-03:00)

ISS - Pass Details

Date: 14 April 2021
Orbit: 418 x 422 km, 51.6° (Epoch: 17 April)

Event Time Altitude Azimuth Distance (km) Brightness Sun altitude
Exits shadow 05:04:22 11° 64° (ENE) 1,443 -0.4 -30.4°
Drops below altitude 10° 05:04:25 11° 64° (ENE) 1,463 -0.4 -30.4°
Sets 05:06:40 0° 57° (ENE) 2,369 0.7 -29.9°
